"TOA5","AWS1","CR1000","7964","CR1000.Std.14","CPU:AWS1_114.CR1","64363","TBL110"
"TIMESTAMP","RECORD","Wind_spd_WVc(1)","Wind_spd_WVc(2)","Air_Temp_Avg","Humidity_Avg","SW_upper_Wm2_Avg","Rain_Tot","Press_Avg","Issui_Tot","Depth_cm","SR50A_Raw","Quality","Ground_Temp_Avg(1)","Ground_Temp_Avg(2)","SW_lower_Wm2_Avg","Albedo_Avg","SWC_per(1)","SWC_per(2)","Period(1)","Period(2)"
"TS","RN","","","","","","","","","","","","","","","","","","",""
"","","WVc","WVc","Avg","Avg","Avg","Tot","Avg","Tot","Smp","Smp","Smp","Avg","Avg","Avg","Avg","Smp","Smp","Smp","Smp"
"2018-06-25 00:00:00",346525,0.444,39.6,16.59,51.33,0,0,865.1424,0,15.19,2.939,225,17.54,16.58,0.1591607,0,49.03,56.23,33.05,34.8
"2018-06-25 00:10:00",346526,0.429,61.17,16.49,52.65,0,0,865.1951,0,16.63,2.927,231,17.55,16.57,0.06821174,0,48.97,56.23,33.04,34.8
"2018-06-25 00:20:00",346527,0.388,4.723,16.54,53.47,0,0,865.2793,0,-9.54,3.183,185,17.5,16.57,0.1364235,0,49.03,56.23,33.05,34.8
"2018-06-25 00:30:00",346528,0.495,29.47,16.02,55.78,0,0,865.3741,0,15.41,2.941,227,17.45,16.58,0,0,49.03,56.23,33.05,34.8
"2018-06-25 00:40:00",346529,0.573,38.72,16.3,55.15,0,0,865.3846,0,17.64,2.918,234,17.4,16.57,0.2387411,0,49.03,56.23,33.05,34.8
"2018-06-25 00:50:00",346530,0.71,31.56,16.41,55.45,0,0,865.3846,0,15.38,2.94,205,17.4,16.56,0.2160038,0,49.03,56.23,33.05,34.8
"2018-06-25 01:00:00",346531,0.532,4.503,16.16,56.22,0,0,865.3846,0,16.52,2.928,203,17.36,16.58,0.09852806,0,49.03,56.23,33.05,34.8
"2018-06-25 01:10:00",346532,0.482,49.55,16.06,57,0,0,865.2455,0,17.46,2.922,235,17.35,16.57,0.04547449,0,49.03,56.23,33.05,34.8
"2018-06-25 01:20:00",346533,0.445,31.19,15.88,57.89,0,0,865.193,0,-14.68,3.234,185,17.28,16.58,0.01515816,0,49.03,56.23,33.05,34.8
"2018-06-25 01:30:00",346534,0.457,29.84,16.27,56.52,0,0,865.2646,0,18.14,2.913,244,17.23,16.58,0.2501097,0,49.03,56.18,33.05,34.79
"2018-06-25 01:40:00",346535,0.406,54.2,15.73,59.04,0,0,865.3846,0,17.79,2.921,248,17.22,16.58,0.0189477,0,49.03,56.18,33.05,34.79
"2018-06-25 01:50:00",346536,0.311,55.84,15.47,60.2,0,0,865.3804,0,16.86,2.93,225,17.2,16.58,0,0,49.03,56.18,33.05,34.79
"2018-06-25 02:00:00",346537,0.174,67.27,15.16,62.01,0,0,865.3846,0,19.28,2.91,290,17.19,16.58,0.007579082,0,49.03,56.23,33.05,34.8
"2018-06-25 02:10:00",346538,0.26,56.38,14.77,63.49,0,0,865.3741,0,17.46,2.929,224,17.17,16.58,0,0,49.03,56.18,33.05,34.79
"2018-06-25 02:20:00",346539,0.224,66.71,14.76,63.67,0,0,865.3678,0,17.49,2.927,234,17.1,16.6,0.1515816,0,49.03,56.23,33.05,34.8
"2018-06-25 02:30:00",346540,0.282,44.93,15.25,61.53,0,0,865.3067,0,19.66,2.903,287,17.08,16.61,0.5722207,0,49.03,56.18,33.05,34.79
"2018-06-25 02:40:00",346541,0.336,43.52,15.4,60.93,0,0,865.3678,0,20.42,2.896,275,17.1,16.62,0.3372714,0,49.03,56.18,33.05,34.79
"2018-06-25 02:50:00",346542,0.437,24.5,15.55,60.28,0,0,865.3846,0,18.1,2.916,228,17.04,16.61,0.394117,0,49.03,56.23,33.05,34.8
"2018-06-25 03:00:00",346543,0.254,40.67,15.94,58.72,0,0,865.3867,0,22.8,2.87,374,16.98,16.6,0.6972798,0,49.03,56.18,33.05,34.79
"2018-06-25 03:10:00",346544,0.343,39.34,16.12,57.91,0,0,865.3846,0,20.94,2.886,323,16.99,16.55,0.5229585,0,49.03,56.23,33.05,34.8
"2018-06-25 03:20:00",346545,0.301,80.6,15.98,58.6,0,0,865.3846,0,20.58,2.891,308,16.97,16.58,0.1440045,0,49.03,56.18,33.05,34.79
"2018-06-25 03:30:00",346546,0.299,129.8,15.73,59.86,0,0,865.3888,0,26.24,2.84,371,16.93,16.56,0.06821252,0,49.03,56.18,33.05,34.79
"2018-06-25 03:40:00",346547,0.296,348,15.68,60.33,0,0,865.5383,0,-24.2,3.324,239,16.91,16.55,0.3979083,0,48.97,56.18,33.04,34.79
"2018-06-25 03:50:00",346548,0.497,358.8,16.47,57.28,0,0,865.6374,0,15.7,2.936,225,16.92,16.53,0.7124418,0,49.03,56.18,33.05,34.79
"2018-06-25 04:00:00",346549,0.123,68.8,15.63,61.7,0,0,865.6352,0,21.09,2.891,489,16.85,16.53,0.1061078,0,49.03,56.18,33.05,34.79
"2018-06-25 04:10:00",346550,0.134,91.8,14.7,65.18,0,0,865.7827,0,19.32,2.91,426,16.86,16.54,0,0,49.03,56.18,33.05,34.79
"2018-06-25 04:20:00",346551,0.099,87.6,14.59,66.09,0,0,865.8901,0,22.18,2.88,490,16.85,16.54,0.125055,0,49.03,56.12,33.05,34.78
"2018-06-25 04:30:00",346552,0.083,86.5,14.72,65.62,0,0,865.8901,0,21.81,2.884,457,16.76,16.55,0.1970563,0,49.03,56.18,33.05,34.79
"2018-06-25 04:40:00",346553,0.241,100.9,15.29,63.42,0.9078963,0,865.9217,0,21.43,2.889,387,16.74,16.55,1.064862,1.299,49.03,56.18,33.05,34.79
"2018-06-25 04:50:00",346554,0.195,21.44,15.44,62.51,4.228989,0,866.1092,0,15.59,2.941,224,16.73,16.57,1.553713,0.347,49.03,56.18,33.05,34.79
"2018-06-25 05:00:00",346555,0.19,265.3,16.04,60.02,10.97336,0,866.1681,0,-19.78,3.283,205,16.73,16.58,2.762578,0.258,49.03,56.12,33.05,34.78
"2018-06-25 05:10:00",346556,0.213,189.6,15.72,61.83,17.56445,0,866.1492,0,21.4,2.883,445,16.67,16.57,3.073321,0.175,49.03,56.18,33.05,34.79
"2018-06-25 05:20:00",346557,0.259,189.6,15.99,61.49,26.41939,0,866.2313,0,21.48,2.882,413,16.68,16.55,4.445136,0.169,49.03,56.18,33.05,34.79
"2018-06-25 05:30:00",346558,0.421,259.3,16.24,61.1,35.63984,0,866.3956,0,22.66,2.869,324,16.68,16.56,5.422838,0.152,49.03,56.18,33.05,34.79
"2018-06-25 05:40:00",346559,0.225,156.5,15.2,67.45,45.56018,0,866.3956,0,-16.59,3.254,217,16.64,16.56,5.748777,0.126,49.03,56.18,33.05,34.79
"2018-06-25 05:50:00",346560,0.418,162.3,15.4,67.28,64.88586,0,866.423,0,17.21,2.927,211,16.59,16.51,10.32284,0.159,49.03,56.18,33.05,34.79
"2018-06-25 06:00:00",346561,0.396,157.5,15.22,70.23,87.07597,0,866.6336,0,16.47,2.936,224,16.57,16.48,13.57043,0.158,49.03,56.18,33.05,34.79
"2018-06-25 06:10:00",346562,0.314,173.1,15.52,67.96,104.2471,0,866.6484,0,21.33,2.883,319,16.5,16.46,18.28458,0.178,49.03,56.18,33.05,34.79
"2018-06-25 06:20:00",346563,0.594,171.4,16.12,66.28,96.92484,0,866.6484,0,-13.6,3.222,182,16.5,16.45,23.19581,0.242,49.03,56.12,33.05,34.78
"2018-06-25 06:30:00",346564,0.723,194.1,16.5,65.75,120.7423,0,866.6484,0,21.89,2.875,366,16.51,16.44,26.80724,0.229,49.03,56.12,33.05,34.78
"2018-06-25 06:40:00",346565,0.499,179.9,16.56,67.33,163.2838,0,866.7052,0,21.49,2.878,501,16.49,16.42,29.5016,0.187,49.08,56.12,33.07,34.78
"2018-06-25 06:50:00",346566,0.594,169.6,16.56,69.43,114.0216,0,866.899,0,21.15,2.882,276,16.49,16.41,32.03302,0.281,49.03,56.12,33.05,34.78
"2018-06-25 07:00:00",346567,0.392,206.8,17.07,66.99,143.5537,0,866.9432,0,21.65,2.873,267,16.49,16.41,34.75012,0.245,49.03,56.12,33.05,34.78
"2018-06-25 07:10:00",346568,0.263,169,17.19,69.19,157.3255,0,867.1201,0,24.23,2.848,310,16.49,16.41,36.823,0.235,49.03,56.12,33.05,34.78
"2018-06-25 07:20:00",346569,0.541,169.7,17.51,65.28,160.4265,0,867.1539,0,27,2.821,328,16.49,16.41,39.64242,0.25,49.03,56.12,33.05,34.78
"2018-06-25 07:30:00",346570,0.321,142.2,17.86,64.09,180.2901,0,867.1981,0,22.3,2.865,352,16.49,16.41,43.1667,0.244,49.03,56.12,33.05,34.78
"2018-06-25 07:40:00",346571,0.617,169.7,17.9,63.86,218.7244,0,867.2086,0,16.28,2.922,222,16.49,16.41,46.88803,0.235,49.03,56.12,33.05,34.78
"2018-06-25 07:50:00",346572,0.545,172.2,18.2,61.98,533.7644,0,867.1539,0,15.19,2.93,220,16.48,16.41,54.94081,0.103,49.03,56.12,33.05,34.78
"2018-06-25 08:00:00",346573,0.647,167.9,18.48,62.84,574.4901,0,867.1559,0,-16.49,3.238,170,16.48,16.41,73.43379,0.128,49.08,56.12,33.07,34.78
"2018-06-25 08:10:00",346574,0.469,132.2,18.69,59.35,617.5856,0,867.15,0,318,0,0,16.45,16.41,91.37729,0.148,49.03,56.12,33.05,34.78
"2018-06-25 08:20:00",346575,0.564,152.4,19.15,58.1,656.9357,0,867.1589,0,16.66,2.911,214,16.43,16.38,105.5502,0.161,49.03,56.12,33.05,34.78
"2018-06-25 08:30:00",346576,0.376,148.9,19.24,59.55,693.8732,0,867.1391,0,-17.61,3.243,194,16.41,16.35,114.7052,0.165,49.03,56.12,33.05,34.78
"2018-06-25 08:40:00",346577,0.42,146.5,19.94,54.48,732.4507,0,867.1612,0,318,0,0,16.4,16.33,120.6159,0.165,49.03,56.12,33.05,34.78
"2018-06-25 08:50:00",346578,0.493,173.7,20.51,53.35,769.0784,0,867.1767,0,16.53,2.906,217,16.39,16.34,126.0238,0.164,49.03,56.06,33.05,34.76
"2018-06-25 09:00:00",346579,0.572,2.477,20.67,54.3,800.9092,0,867.1292,0,-22.9,3.29,190,16.37,16.28,129.3958,0.162,49.03,56.12,33.05,34.78
"2018-06-25 09:10:00",346580,0.555,357,20.46,55.67,831.9473,0,867.0908,0,-20.93,3.27,182,16.38,16.23,133.4646,0.16,49.03,56.12,33.05,34.78
"2018-06-25 09:20:00",346581,0.664,37.7,20.27,58.51,864.2281,0,867.0832,0,25.3,2.824,426,16.38,16.23,138.0344,0.16,49.03,56.06,33.05,34.76
"2018-06-25 09:30:00",346582,0.651,27.52,20.43,58.37,885.3221,0,867.0887,0,15.83,2.913,220,16.37,16.23,141.5492,0.16,49.03,56.06,33.05,34.76
"2018-06-25 09:40:00",346583,0.833,23.26,20.54,58.43,902.0305,0,867.0935,0,15.67,2.916,222,16.36,16.23,144.9062,0.161,48.97,56.06,33.04,34.76
"2018-06-25 09:50:00",346584,0.884,14.02,20.61,58.16,930.7596,0,867.0963,0,18.5,2.887,226,16.36,16.23,150.5265,0.162,48.97,56.06,33.04,34.76
"2018-06-25 10:00:00",346585,0.875,19.3,20.71,58.95,955.774,0,867.09,0,18.37,2.888,272,16.36,16.2,155.0484,0.162,48.97,56.06,33.04,34.76
"2018-06-25 10:10:00",346586,0.852,17.92,21.12,58.14,980.7224,0,867.0872,0,-20.47,3.26,198,16.35,16.19,159.6759,0.163,48.97,56.06,33.04,34.76
"2018-06-25 10:20:00",346587,0.544,336.6,21.47,53.62,1001.24,0,867.2675,0,18.16,2.886,213,16.4,16.17,162.5296,0.162,48.97,56.06,33.04,34.76
"2018-06-25 10:30:00",346588,0.254,267.8,22.08,50.57,1013.31,0,867.2127,0,16.11,2.904,213,16.47,16.15,162.5827,0.16,48.97,56.06,33.04,34.76
"2018-06-25 10:40:00",346589,0.569,287.9,21.76,49.72,1037.55,0,867.1984,0,16.62,2.9,261,16.47,16.15,165.6211,0.16,48.92,56,33.03,34.75
"2018-06-25 10:50:00",346590,0.742,292.6,21.68,50.42,1045.831,0,867.1301,0,-14.5,3.199,184,16.53,16.13,167.236,0.16,48.92,56,33.03,34.75
"2018-06-25 11:00:00",346591,0.655,307.6,22.03,49.58,916.4443,0,867.1241,0,-12.79,3.183,169,16.54,16.11,144.8863,0.148,48.86,56,33.01,34.75
"2018-06-25 11:10:00",346592,0.524,348.8,22.26,50.23,1032.4,0,867.2629,0,15.66,2.905,210,16.63,16.1,167.7517,0.162,48.81,56,33,34.75
"2018-06-25 11:20:00",346593,0.435,318.8,22.76,48.51,1053.55,0,867.2703,0,16.43,2.898,231,16.66,16.1,171.4127,0.163,48.81,56,33,34.75
"2018-06-25 11:30:00",346594,0.433,294.9,22.69,47.41,1055.401,0,867.2957,0,318,0,0,16.74,16.11,170.9144,0.162,48.81,56,33,34.75
"2018-06-25 11:40:00",346595,0.5,330.5,22.91,47.49,1073.951,0,867.1898,0,17.48,2.887,219,16.81,16.11,174.4889,0.162,48.75,55.95,32.99,34.74
"2018-06-25 11:50:00",346596,0.501,336.7,22.95,47.47,1079.884,0,867.1833,0,15.35,2.907,225,16.92,16.11,175.6413,0.163,48.75,55.95,32.99,34.74
"2018-06-25 12:00:00",346597,0.414,337.6,23.15,46.52,1073.184,0,867.1791,0,17.16,2.888,242,16.98,16.1,174.9353,0.163,48.75,55.95,32.99,34.74
"2018-06-25 12:10:00",346598,0.474,310.2,23.34,45.29,1076.368,0,867.1052,0,16.91,2.89,248,17.08,16.1,175.8644,0.163,48.7,55.95,32.97,34.74
"2018-06-25 12:20:00",346599,0.52,319,23.5,45.36,1077.403,0,867.0955,0,16.27,2.894,325,17.17,16.1,175.9512,0.163,48.7,55.95,32.97,34.74
"2018-06-25 12:30:00",346600,0.48,297.3,23.77,43.16,1072.328,0,867.0814,0,15.75,2.899,248,17.28,16.1,175.8172,0.164,48.7,55.95,32.97,34.74
"2018-06-25 12:40:00",346601,0.563,281.8,23.85,41.6,1065.44,0,866.9375,0,14.37,2.913,210,17.37,16.1,175.5231,0.165,48.65,55.89,32.96,34.72
"2018-06-25 12:50:00",346602,0.484,312.7,23.92,41.12,1068.548,0,866.8391,0,15.63,2.898,209,17.45,16.1,175.8231,0.165,48.59,55.89,32.95,34.72
"2018-06-25 13:00:00",346603,0.389,299.9,24.48,38.15,1059.278,0,866.8555,0,18.79,2.866,288,17.58,16.09,174.0574,0.164,48.59,55.89,32.95,34.72
"2018-06-25 13:10:00",346604,0.455,27.44,24.37,37.62,1050.054,0,866.8459,0,18.42,2.871,240,17.65,16.07,171.8291,0.164,48.59,55.89,32.95,34.72
"2018-06-25 13:20:00",346605,0.35,288.2,24.52,37.48,1028.504,0,866.8363,0,-22.08,3.257,212,17.78,16.06,169.7884,0.165,48.54,55.89,32.93,34.72
"2018-06-25 13:30:00",346606,0.41,20.97,24.68,34.88,996.1212,0,866.8336,0,-12.58,3.166,170,17.85,16.04,163.2747,0.164,48.48,55.89,32.92,34.72
"2018-06-25 13:40:00",346607,0.508,357.4,24.32,33.21,936.1273,0,866.8418,0,-12.88,3.171,170,17.95,16.03,152.8923,0.163,48.48,55.83,32.92,34.71
"2018-06-25 13:50:00",346608,0.576,5.518,24.71,32.63,901.4411,0,866.8463,0,-12.21,3.162,187,18.04,16.02,147.8033,0.164,48.48,55.83,32.92,34.71
"2018-06-25 14:00:00",346609,0.327,251.1,24.34,35.19,829.8753,0,866.8976,0,-9.89,3.143,180,18.13,16.04,135.3927,0.163,48.43,55.83,32.9,34.71
"2018-06-25 14:10:00",346610,0.445,331.4,24.33,36.39,932.0588,0,867.0017,0,18.64,2.867,328,18.25,16.1,153.8516,0.165,48.43,55.83,32.9,34.71
"2018-06-25 14:20:00",346611,0.374,277.8,24.83,37.89,907.298,0,866.8629,0,-10.06,3.141,187,18.32,16.08,147.5344,0.163,48.43,55.83,32.9,34.71
"2018-06-25 14:30:00",346612,0.304,276.8,24.65,38.58,885.7562,0,866.8632,0,14.46,2.907,233,18.42,16.03,139.853,0.158,48.38,55.77,32.89,34.7
"2018-06-25 14:40:00",346613,0.396,317.6,24.77,36.77,836.3643,0,866.855,0,318,0,0,18.48,16.1,125.5058,0.15,48.38,55.77,32.89,34.7
"2018-06-25 14:50:00",346614,0.478,277.3,24.62,35.65,790.6889,0,866.8609,0,318,0,0,18.56,16.11,109.5468,0.138,48.32,55.77,32.88,34.7
"2018-06-25 15:00:00",346615,0.548,342.9,24.57,36.17,762.7786,0,866.863,0,13.84,2.913,248,18.64,16.16,92.16459,0.121,48.32,55.77,32.88,34.7
"2018-06-25 15:10:00",346616,0.385,210,24.66,37.93,741.4532,0,866.8569,0,19.94,2.855,289,18.68,16.19,72.5884,0.098,48.27,55.77,32.86,34.7
"2018-06-25 15:20:00",346617,0.381,208,24.31,40.16,688.1292,0,866.9283,0,18.89,2.868,226,18.74,16.17,52.97016,0.077,48.27,55.72,32.86,34.68
"2018-06-25 15:30:00",346618,0.339,302,23.97,41.97,449.5301,0,866.9639,0,19.58,2.862,224,18.8,16.17,26.69731,0.061,48.27,55.77,32.86,34.7
"2018-06-25 15:40:00",346619,0.394,260.9,23.61,42.33,209.9479,0,867.138,0,18.98,2.869,262,18.89,16.19,20.03909,0.095,48.21,55.77,32.85,34.7
"2018-06-25 15:50:00",346620,0.338,273.6,23.7,42.12,126.2761,0,867.1434,0,318,0,0,18.96,16.23,23.73768,0.197,48.21,55.77,32.85,34.7
"2018-06-25 16:00:00",346621,0.466,78.29,23.72,42.15,99.71915,0,867.1551,0,-11.74,3.164,199,19,16.26,16.4504,0.163,48.16,55.72,32.84,34.68
"2018-06-25 16:10:00",346622,0.165,202.8,23.28,42.73,135.0485,0,867.1501,0,-11.86,3.167,196,19.05,16.27,17.69337,0.144,48.16,55.72,32.84,34.68
"2018-06-25 16:20:00",346623,0.422,44.4,23.2,43.4,100.0965,0,867.1519,0,19.78,2.862,245,19.13,16.29,15.71523,0.158,48.11,55.72,32.82,34.68
"2018-06-25 16:30:00",346624,0.35,129.8,23.41,44.25,87.41737,0,867.1534,0,-14.26,3.19,189,19.17,16.29,13.21034,0.151,48.11,55.72,32.82,34.68
"2018-06-25 16:40:00",346625,0.233,165,22.93,46.87,75.20597,0,867.139,0,18.25,2.879,218,19.21,16.28,10.48945,0.14,48.11,55.72,32.82,34.68
"2018-06-25 16:50:00",346626,0.176,236.6,22.82,49.26,66.2292,0,867.0569,0,19.38,2.869,258,19.24,16.34,9.201005,0.139,48.05,55.66,32.81,34.67
"2018-06-25 17:00:00",346627,0.288,167,22.67,49.66,57.32318,0,867.0633,0,19.13,2.872,234,19.25,16.41,7.882246,0.137,48.05,55.66,32.81,34.67
"2018-06-25 17:10:00",346628,0.103,184.7,22.53,49.69,47.30882,0,867.1539,0,29.62,2.772,260,19.32,16.41,5.646416,0.119,48.05,55.66,32.81,34.67
"2018-06-25 17:20:00",346629,0.081,178.2,22.38,50.71,46.76251,0,867.2338,0,-13.77,3.191,178,19.33,16.42,5.301568,0.113,48,55.66,32.8,34.67
"2018-06-25 17:30:00",346630,0.111,207.2,22.12,52.03,50.06395,0,867.4066,0,16.94,2.896,222,19.36,16.43,5.816946,0.116,48,55.66,32.8,34.67
"2018-06-25 17:40:00",346631,0.198,210.8,21.87,53.87,61.21809,0,867.4866,0,17.55,2.891,230,19.36,16.45,8.060353,0.132,48,55.6,32.8,34.65
"2018-06-25 17:50:00",346632,0.079,184,21.66,56.16,63.65094,0,867.6804,0,17.02,2.898,224,19.34,16.51,8.530256,0.134,47.95,55.6,32.78,34.65
"2018-06-25 18:00:00",346633,0.157,181.9,21.26,59.14,51.12513,0,867.8721,0,17.45,2.896,229,19.33,16.58,6.195899,0.121,47.95,55.6,32.78,34.65
"2018-06-25 18:10:00",346634,0.003,178.6,21.02,60.59,37.75823,0,867.91,0,17.19,2.899,232,19.32,16.58,4.570186,0.121,47.95,55.6,32.78,34.65
"2018-06-25 18:20:00",346635,0.056,193.9,20.69,63.33,30.39288,0,867.9142,0,16.85,2.905,235,19.34,16.58,3.501536,0.115,47.95,55.6,32.78,34.65
"2018-06-25 18:30:00",346636,0.006,198.3,20.3,66.56,25.14988,0,868.1375,0,17.46,2.9,240,19.36,16.58,2.989948,0.118,47.95,55.6,32.78,34.65
"2018-06-25 18:40:00",346637,0,0,19.87,69.35,16.25958,0,868.1754,0,17.46,2.903,244,19.37,16.62,1.587818,0.098,47.89,55.6,32.77,34.65
"2018-06-25 18:50:00",346638,0,0,19.41,71.84,13.17431,0,868.1943,0,17.38,2.906,236,19.36,16.74,1.428657,0.108,47.89,55.55,32.77,34.64
"2018-06-25 19:00:00",346639,0,0,19.26,72.28,6.720785,0,868.4091,0,17.66,2.903,237,19.3,16.74,0.8905421,0.132,47.89,55.55,32.77,34.64
"2018-06-25 19:10:00",346640,0.046,161.7,19,74.06,0.6602876,0,868.4176,0,18.04,2.902,240,19.26,16.68,0.04926403,0.022,47.89,55.55,32.77,34.64
"2018-06-25 19:20:00",346641,0.076,166.8,18.61,76.13,0,0,868.4176,0,-9.8,3.173,190,19.28,16.67,0,0,47.89,55.55,32.77,34.64
"2018-06-25 19:30:00",346642,0.189,174.7,18.25,78.2,0,0,868.605,0,19.18,2.894,274,19.29,16.77,0,0,47.89,55.55,32.77,34.64
"2018-06-25 19:40:00",346643,0.171,175.5,17.96,79.55,0,0,868.6703,0,17.67,2.909,233,19.21,16.82,0,0,47.84,55.55,32.76,34.64
"2018-06-25 19:50:00",346644,0.007,175.3,18.17,77.84,0,0,868.6703,0,17.63,2.909,233,19.19,16.84,0.2122143,0,47.89,55.55,32.77,34.64
"2018-06-25 20:00:00",346645,0.11,174.3,17.88,79.42,0,0,868.6703,0,17.6,2.911,234,19.23,16.84,0.0189477,0,47.89,55.55,32.77,34.64
"2018-06-25 20:10:00",346646,0.129,174.5,17.73,80.4,0,0,868.7798,0,17.83,2.907,228,19.21,16.8,0.04547449,0,47.84,55.55,32.76,34.64
"2018-06-25 20:20:00",346647,0.007,170.1,18.04,78.77,0,0,868.923,0,17.82,2.91,221,19.13,16.83,0.4926403,0,47.84,55.55,32.76,34.64
"2018-06-25 20:30:00",346648,0.266,178.9,17.27,82.8,0,0,868.9778,0,17.87,2.911,230,19.18,16.84,0,0,47.84,55.49,32.76,34.63
"2018-06-25 20:40:00",346649,0.172,195.2,17.15,83.4,0,0,869.1422,0,18.76,2.903,245,19.1,16.89,0,0,47.79,55.49,32.74,34.63
"2018-06-25 20:50:00",346650,0.105,192,17.06,84.6,0,0,869.3485,0,18.62,2.905,238,19.04,16.93,0,0,47.79,55.49,32.74,34.63
"2018-06-25 21:00:00",346651,0.335,188.6,16.79,86.1,0,0,869.4265,0,18.18,2.911,230,19.08,16.93,0,0,47.79,55.43,32.74,34.61
"2018-06-25 21:10:00",346652,0.171,183.4,16.76,86.4,0,0,869.4286,0,18.45,2.906,237,18.95,16.9,0.2387411,0,47.79,55.49,32.74,34.63
"2018-06-25 21:20:00",346653,0.115,183.2,16.93,84.9,0,0,869.4539,0,18.95,2.904,247,18.98,16.92,0.3259005,0,47.79,55.49,32.74,34.63
"2018-06-25 21:30:00",346654,0.387,188.7,16.61,87,0,0,869.5886,0,19.26,2.901,263,18.96,16.93,0.1970561,0,47.79,55.49,32.74,34.63
"2018-06-25 21:40:00",346655,0.149,180.6,16.63,86.9,0,0,869.5865,0,18.53,2.905,234,18.87,16.95,0.3903227,0,47.79,55.43,32.74,34.61
"2018-06-25 21:50:00",346656,0.134,184.1,16.89,84.8,0,0,869.7255,0,18.5,2.909,234,18.93,17.01,0.5229567,0,47.79,55.49,32.74,34.63
"2018-06-25 22:00:00",346657,0.43,188.7,16.48,87.4,0,0,869.8666,0,18.73,2.907,237,18.88,17.01,0.1781084,0,47.79,55.43,32.74,34.61
"2018-06-25 22:10:00",346658,0.243,182.5,16.53,87.5,0,0,869.8582,0,19.33,2.899,245,18.83,17.01,0.2652679,0,47.79,55.43,32.74,34.61
"2018-06-25 22:20:00",346659,0.098,174.6,16.4,87.9,0,0,869.7087,0,-11.08,3.198,192,18.84,16.99,0.1364235,0,47.79,55.43,32.74,34.61
"2018-06-25 22:30:00",346660,0.311,196.5,16.45,88.4,0,0,869.6855,0,18.2,2.91,238,18.72,17.03,0.4509554,0,47.73,55.43,32.73,34.61
"2018-06-25 22:40:00",346661,0.169,189.8,16.43,87.9,0,0,869.6813,0,18.23,2.911,238,18.73,17.05,0.2576888,0,47.79,55.37,32.74,34.6
"2018-06-25 22:50:00",346662,0.18,186.1,16.36,88.4,0,0,869.6349,0,18.14,2.914,230,18.74,17.04,0.1856875,0,47.79,55.37,32.74,34.6
"2018-06-25 23:00:00",346663,0.135,199.4,16.6,86.1,0,0,869.5318,0,18.38,2.905,240,18.62,17.08,0.7958037,0,47.79,55.37,32.74,34.6
"2018-06-25 23:10:00",346664,0.057,193.3,17.5,79.28,0,0,869.6581,0,17.72,2.912,237,18.66,17.1,1.224022,0,47.79,55.37,32.74,34.6
"2018-06-25 23:20:00",346665,0.105,190.2,16.89,82.9,0,0,869.6834,0,17.82,2.915,222,18.57,17.1,0.1212653,0,47.79,55.37,32.74,34.6
"2018-06-25 23:30:00",346666,0.329,189.1,16.44,86.2,0,0,869.6834,0,18.16,2.913,231,18.54,17.1,0,0,47.79,55.37,32.74,34.6
"2018-06-25 23:40:00",346667,0.212,188.5,16.4,86.5,0,0,869.6813,0,18.46,2.907,229,18.57,17.1,0.2084248,0,47.79,55.37,32.74,34.6
"2018-06-25 23:50:00",346668,0.026,189.2,17.25,80.2,0,0,869.6813,0,17.8,2.913,236,18.47,17.1,1.034545,0,47.73,55.32,32.73,34.59
